Fort Myers, FL

1:43 PM EDT on September 25, 2016 (GMT -0400)
Page

Weather History for KFMY - September, 2012

Change the Weather History Date:

Sunday, September 9, 2012

  Actual Average Record
Temperature  
Mean Temperature 85 °F 83 °F  
Max Temperature 89 °F 91 °F 96 °F (1987)
Min Temperature 80 °F 75 °F 68 °F (1958)
Degree Days  
Heating Degree Days 0 0  
Month to date heating degree days 0 0  
Since 1 July heating degree days 0 0  
Cooling Degree Days 20 18  
Month to date cooling degree days 164 162  
Year to date cooling degree days 3313 2886  
Growing Degree Days 34 (Base 50)    
Moisture  
Dew Point 74 °F    
Average Humidity 69    
Maximum Humidity 85    
Minimum Humidity 59    
Precipitation  
Precipitation 0.02 in 0.30 in 2.90 in (1986)
Month to date precipitation 0.81 2.93  
Year to date precipitation 36.61 44.00  
Sea Level Pressure  
Sea Level Pressure 29.95 in    
Wind  
Wind Speed 10 mph (WSW)    
Max Wind Speed 20 mph    
Max Gust Speed 26 mph    
Visibility 10 miles    
Events      
T = Trace of Precipitation, MM = Missing Value Source: NWS Daily Summary

Daily Weather History Graph

Daily Weather History Graph

Search for Another Location

Airport or City:

Trip Planner

Search our weather history database for the weather conditions in past years. The results will help you decide how hot, cold, wet, or windy it might be!

Date:

Astronomy

Sep. 09, 2012 Rise Set
Actual Time 7:10 AM EDT 7:37 PM EDT
Civil Twilight 6:47 AM EDT 8:01 PM EDT
Nautical Twilight 6:20 AM EDT 8:28 PM EDT
Astronomical Twilight 5:52 AM EDT 8:56 PM EDT
Moon 1:03 AM EDT (9/9) 2:58 PM EDT (9/9)
Length of Visible Light 13h 13m
Length of Day
12h 27m
Last Quarter, 39% of the Moon is Illuminated
Sep 9
Last Quarter
Sep 15
New
Sep 22
First Quarter
Sep 29
Full
Oct 8
Last Quarter

Hourly Weather History & Observations

Time (EDT) Temp. Heat Index Dew Point Humidity Pressure Visibility Wind Dir Wind Speed Gust Speed Precip Events Conditions
12:53 AM 80.1 °F 84.5 °F 73.9 °F 81% 29.94 in 10.0 mi Calm Calm - N/A   Clear
1:53 AM 80.1 °F 84.5 °F 73.9 °F 81% 29.93 in 10.0 mi Calm Calm - N/A   Clear
2:53 AM 82.0 °F 87.9 °F 73.9 °F 76% 29.92 in 10.0 mi SW 3.5 mph - N/A   Partly Cloudy
3:53 AM 82.0 °F 87.9 °F 73.9 °F 76% 29.92 in 10.0 mi SSW 8.1 mph - N/A   Scattered Clouds
4:53 AM 82.0 °F 87.4 °F 73.0 °F 74% 29.93 in 10.0 mi SW 6.9 mph - N/A   Partly Cloudy
5:53 AM 82.0 °F 87.4 °F 73.0 °F 74% 29.93 in 10.0 mi SSW 8.1 mph - N/A   Clear
6:53 AM 82.0 °F 87.4 °F 73.0 °F 74% 29.94 in 10.0 mi SW 5.8 mph - N/A   Partly Cloudy
7:53 AM 82.9 °F 88.8 °F 73.0 °F 72% 29.95 in 10.0 mi SW 5.8 mph - N/A   Partly Cloudy
8:53 AM 84.9 °F 92.1 °F 73.9 °F 69% 29.96 in 10.0 mi SW 8.1 mph - N/A   Clear
9:53 AM 86.0 °F 93.0 °F 73.0 °F 65% 29.98 in 10.0 mi SW 13.8 mph 21.9 mph N/A   Mostly Cloudy
10:01 AM 87.8 °F 95.6 °F 73.4 °F 62% 29.98 in 10.0 mi SW 9.2 mph - N/A   Mostly Cloudy
10:16 AM 86.0 °F 93.4 °F 73.4 °F 66% 29.98 in 10.0 mi WSW 15.0 mph 20.7 mph N/A   Mostly Cloudy
10:53 AM 87.1 °F 94.5 °F 73.0 °F 63% 29.99 in 10.0 mi SW 15.0 mph 19.6 mph N/A   Mostly Cloudy
11:18 AM 87.8 °F 95.6 °F 73.4 °F 62% 29.99 in 10.0 mi WSW 17.3 mph 23.0 mph N/A   Mostly Cloudy
11:43 AM 87.8 °F 95.6 °F 73.4 °F 62% 29.98 in 10.0 mi WSW 10.4 mph - N/A   Mostly Cloudy
12:05 PM 87.8 °F 95.6 °F 73.4 °F 62% 29.98 in 10.0 mi WSW 17.3 mph - N/A   Scattered Clouds
12:53 PM 88.0 °F 95.6 °F 73.0 °F 61% 29.97 in 10.0 mi West 17.3 mph - N/A   Clear
1:53 PM 89.1 °F 98.0 °F 73.9 °F 61% 29.96 in 10.0 mi SW 13.8 mph 23.0 mph N/A   Partly Cloudy
2:39 PM 87.8 °F 97.6 °F 75.2 °F 66% 29.95 in 10.0 mi West 15.0 mph - N/A   Mostly Cloudy
2:51 PM 87.8 °F 95.6 °F 73.4 °F 62% 29.94 in 10.0 mi West 15.0 mph 26.5 mph N/A   Mostly Cloudy
2:53 PM 89.1 °F 98.0 °F 73.9 °F 61% 29.95 in 10.0 mi West 12.7 mph - N/A   Mostly Cloudy
3:53 PM 87.1 °F 95.4 °F 73.9 °F 65% 29.93 in 10.0 mi WSW 15.0 mph 20.7 mph N/A   Scattered Clouds
4:37 PM 87.8 °F 97.6 °F 75.2 °F 66% 29.91 in 10.0 mi WSW 16.1 mph - N/A   Mostly Cloudy
4:46 PM 87.8 °F 95.6 °F 73.4 °F 62% 29.91 in 10.0 mi WSW 16.1 mph 23.0 mph N/A   Scattered Clouds
4:53 PM 87.1 °F 95.4 °F 73.9 °F 65% 29.91 in 10.0 mi WSW 16.1 mph - N/A   Partly Cloudy
6:53 PM 84.9 °F 92.1 °F 73.9 °F 69% 29.94 in 10.0 mi West 15.0 mph - N/A   Partly Cloudy
7:53 PM 82.9 °F 90.2 °F 75.0 °F 77% 29.96 in 10.0 mi West 10.4 mph - 0.02 in   Partly Cloudy
8:53 PM 82.9 °F 90.2 °F 75.0 °F 77% 29.97 in 10.0 mi West 5.8 mph - N/A   Clear
9:53 PM 82.0 °F 88.6 °F 75.0 °F 79% 29.98 in 10.0 mi West 12.7 mph - 0.00 in   Clear
10:53 PM 80.1 °F 84.5 °F 73.9 °F 81% 29.99 in 10.0 mi WSW 3.5 mph - N/A   Clear
11:53 PM 81.0 °F 86.7 °F 75.0 °F 82% 29.99 in 10.0 mi West 5.8 mph - N/A   Clear